STARLINK-37019, 68273

Orbit data source: Space-Track

STARLINK-37019, 68273 is a payload satellite owned by SpaceX/Seattle (US) in LEO that was launched on Thu, 19 Mar 2026 UTC via an FALCON 9 launch vehicle from the Air Force Eastern Test Range (AFETR). Payload-class satellites include a variety of spacecraft equipped with specific instruments for various scientific and technological missions. These include communications satellites like Starlink; space stations such as the ISS; scientific satellites like the Hubble; Earth observation satellites from companies like Planet Labs, Umbra, and HawkEye 360; GPS; miniature CubeSats for education and research; and military/defense satellites.

Loading next visibility...
Identifier
68273, 2026-055M
Orbit
LEO
Country
Flag of USUS
Related business
Manufacturer
SpaceX/Seattle
Mission
Operational spacecraft
Bus & Motor
STARLINK V2MO, Unknown motor
Mass
575 kg wet, ~530 kg dry
Launch date (UTC)
2026-03-19 (3 months ago)
Launch vehicle
FALCON 9
Launch site
Air Force Eastern Test Range (AFETR)
Object type
Payload
Rocket body
Debris
Shape & HBR
Unknown shape, 17.7 m
Radar Cross Section
Large (>1 m²)

Expand to show TLE details & history
Last TLE update: 12 hours ago

TLE from 12 hours ago
0 STARLINK-37019
1 68273U 26055M   26171.34382828  .00027295  00000-0  81558-3 0  9994
2 68273  53.1584 200.6129 0001280  71.9174 288.1968 15.34417050 15675
Epoch: 2026-06-20T08:15Z
TLE epoch observation values (Epoch: 2026-06-20T08:15:06.763Z)
Latitude
-0.00001°
Longitude
168.27491°
Altitude
463.28 km
Speed
7.636 km/s
True Right ascension
13h 22m 27s
True Declination
0° 00' 00"
Sunlit
Object was in daylight at epoch
Visualization orbit readout
Latitude
Unknown
Longitude
Unknown
Altitude
Unknown
Speed
Unknown
Apparent Right ascension
Unknown
Apparent Declination
Unknown
Sunlit
N/A
Visualization observer readout
Local Sidereal Time
07:13:24
Azimuth
Unknown
Elevation
Unknown
Doppler factor
Unknown
Orbital elements
Apogee altitude
463.785 km
Perigee altitude
462.034 km
Semi-major axis
6,841.047 km
Eccentricity
0.00013
Inclination
53.1584°
RAAN
200.6129°
Arg. of periapsis
71.9174°
True anomaly
288.18287°
Mean anomaly
288.1968°
Eccentric anomaly
288.18983°
Mean motion
3.83583 °/min
Orbital period
93.85 mins
BSTAR
0.00081558
Loading maneuver chart data...
Computing Atmospheric mass density...
Loading historical data...
Loading historical data...
Loading historical data...
Loading historical data...
Loading historical data...
Loading historical data...
Loading historical data...

Documentation

Showing up to 5 results
|